• In Österreich
  • Länderverzeichnis
  • Für 7 Tage
  • Wassertemperatur
  • Satellitenkarten
  • Wetterkarte
  • News
  • Widgets
  • user-avatar
    Anmelden

    Stündliche Wetter Trujillo

    Heute, 17 Oktober, Mittwoch

    Zeit Temperatur Niederschläge Wind Luftdruck Luftfeuchtigkeit
    00:00 +14°C° 0 mm 1 m/S 616 mmHg 95%
    01:00 +14°C° 0.1 mm 1 m/S 615 mmHg 95%
    02:00 +14°C° 0.1 mm 1 m/S 615 mmHg 95%
    03:00 +14°C° 0.1 mm 1 m/S 615 mmHg 95%
    04:00 +14°C° 0.2 mm 1 m/S 615 mmHg 95%
    05:00 +14°C° 0.2 mm 1 m/S 615 mmHg 95%
    06:00 +14°C° 0.2 mm 1 m/S 616 mmHg 95%
    07:00 +16°C° 0.1 mm 1 m/S 616 mmHg 90%
    08:00 +18°C° 0.1 mm 1 m/S 617 mmHg 86%
    09:00 +19°C° 0.1 mm 1 m/S 618 mmHg 81%
    10:00 +20°C° 0.2 mm 1 m/S 618 mmHg 79%
    11:00 +20°C° 0.2 mm 1 m/S 618 mmHg 76%
    12:00 +21°C° 0.2 mm 1 m/S 617 mmHg 74%
    13:00 +21°C° 0.5 mm 1 m/S 617 mmHg 73%
    14:00 +21°C° 0.5 mm 1 m/S 617 mmHg 73%
    15:00 +21°C° 0.5 mm 1 m/S 616 mmHg 72%
    16:00 +20°C° 0.8 mm 1 m/S 616 mmHg 79%
    17:00 +18°C° 0.8 mm 1 m/S 616 mmHg 86%
    18:00 +16°C° 0.8 mm 1 m/S 615 mmHg 93%
    19:00 +16°C° 0.8 mm 1 m/S 616 mmHg 93%
    20:00 +15°C° 0.8 mm 1 m/S 616 mmHg 94%
    21:00 +15°C° 0.8 mm 1 m/S 616 mmHg 95%
    22:00 +15°C° 0.4 mm 1 m/S 616 mmHg 95%
    23:00 +14°C° 0.4 mm 0 m/S 616 mmHg 94%

    Morgen, 18 Oktober, Donnerstag

    Zeit Temperatur Niederschläge Wind Luftdruck Luftfeuchtigkeit
    00:00 +14°C° 0.4 mm 0 m/S 616 mmHg 94%
    01:00 +13°C° 0.1 mm 0 m/S 616 mmHg 95%
    02:00 +13°C° 0.1 mm 0 m/S 615 mmHg 95%
    03:00 +13°C° 0.1 mm 0 m/S 615 mmHg 95%
    04:00 +13°C° 0.1 mm 0 m/S 615 mmHg 95%
    05:00 +13°C° 0.1 mm 0 m/S 616 mmHg 95%
    06:00 +13°C° 0.1 mm 0 m/S 616 mmHg 95%
    07:00 +16°C° 0.1 mm 1 m/S 617 mmHg 89%
    08:00 +18°C° 0.1 mm 1 m/S 618 mmHg 84%
    09:00 +20°C° 0.1 mm 1 m/S 619 mmHg 78%
    10:00 +20°C° 0.7 mm 1 m/S 619 mmHg 79%
    11:00 +20°C° 0.7 mm 1 m/S 619 mmHg 79%
    12:00 +20°C° 0.7 mm 1 m/S 618 mmHg 80%
    13:00 +20°C° 1.6 mm 1 m/S 618 mmHg 81%
    14:00 +20°C° 1.6 mm 1 m/S 617 mmHg 83%
    15:00 +20°C° 1.6 mm 1 m/S 617 mmHg 85%
    16:00 +16°C° 1 mm 0 m/S 617 mmHg 88%
    17:00 +15°C° 1 mm 0 m/S 616 mmHg 91%
    18:00 +14°C° 1 mm 0 m/S 616 mmHg 94%
    19:00 +14°C° 0.6 mm 0 m/S 617 mmHg 94%
    20:00 +14°C° 0.6 mm 0 m/S 617 mmHg 94%
    21:00 +14°C° 0.6 mm 0 m/S 618 mmHg 95%
    22:00 +14°C° 0.8 mm 0 m/S 618 mmHg 94%
    23:00 +14°C° 0.8 mm 0 m/S 617 mmHg 94%

    übermorgen, 19 Oktober, Freitag

    Zeit Temperatur Niederschläge Wind Luftdruck Luftfeuchtigkeit
    00:00 +14°C° 0.8 mm 0 m/S 617 mmHg 94%
    01:00 +14°C° 0.7 mm 0 m/S 617 mmHg 94%
    02:00 +14°C° 0.7 mm 0 m/S 617 mmHg 94%
    03:00 +13°C° 0.7 mm 0 m/S 616 mmHg 94%
    04:00 +13°C° 0.5 mm 0 m/S 617 mmHg 94%
    05:00 +14°C° 0.5 mm 1 m/S 617 mmHg 94%
    06:00 +14°C° 0.5 mm 1 m/S 617 mmHg 93%
    07:00 +15°C° 0.1 mm 1 m/S 618 mmHg 88%
    08:00 +18°C° 0.1 mm 1 m/S 619 mmHg 82%
    09:00 +20°C° 0.1 mm 1 m/S 620 mmHg 77%
    10:00 +21°C° 0.2 mm 1 m/S 620 mmHg 70%
    11:00 +22°C° 0.2 mm 1 m/S 620 mmHg 64%
    12:00 +24°C° 0.2 mm 1 m/S 620 mmHg 57%
    13:00 +23°C° 0.4 mm 1 m/S 619 mmHg 59%
    14:00 +23°C° 0.4 mm 1 m/S 618 mmHg 62%
    15:00 +23°C° 0.4 mm 1 m/S 617 mmHg 64%
    16:00 +21°C° 0.3 mm 1 m/S 617 mmHg 70%
    17:00 +19°C° 0.3 mm 1 m/S 616 mmHg 77%
    18:00 +18°C° 0.3 mm 1 m/S 616 mmHg 84%
    19:00 +16°C° 0.3 mm 1 m/S 616 mmHg 85%
    20:00 +15°C° 0.3 mm 1 m/S 617 mmHg 87%
    21:00 +15°C° 0.3 mm 1 m/S 617 mmHg 89%
    22:00 +15°C° 0 mm 1 m/S 617 mmHg 90%
    23:00 +14°C° 0 mm 1 m/S 617 mmHg 91%

    20 Oktober, Samstag

    Zeit Temperatur Niederschläge Wind Luftdruck Luftfeuchtigkeit
    00:00 +14°C° 0 mm 1 m/S 616 mmHg 92%
    01:00 +14°C° 0 mm 1 m/S 616 mmHg 92%
    02:00 +14°C° 0 mm 1 m/S 616 mmHg 92%
    03:00 +14°C° 0 mm 1 m/S 615 mmHg 93%
    04:00 +13°C° 0 mm 1 m/S 615 mmHg 93%
    05:00 +13°C° 0 mm 1 m/S 616 mmHg 93%
    06:00 +13°C° 0 mm 1 m/S 616 mmHg 93%
    07:00 +16°C° 0.1 mm 1 m/S 617 mmHg 84%
    08:00 +19°C° 0.1 mm 1 m/S 618 mmHg 76%
    09:00 +22°C° 0.1 mm 1 m/S 620 mmHg 68%
    10:00 +22°C° 0.7 mm 1 m/S 619 mmHg 67%
    11:00 +23°C° 0.7 mm 1 m/S 619 mmHg 65%
    12:00 +24°C° 0.7 mm 1 m/S 619 mmHg 64%
    13:00 +23°C° 1.5 mm 1 m/S 618 mmHg 66%
    14:00 +23°C° 1.5 mm 1 m/S 617 mmHg 69%
    15:00 +22°C° 1.5 mm 1 m/S 617 mmHg 71%
    16:00 +21°C° 1.8 mm 1 m/S 616 mmHg 78%
    17:00 +19°C° 1.8 mm 1 m/S 616 mmHg 85%
    18:00 +16°C° 1.8 mm 1 m/S 616 mmHg 91%
    19:00 +16°C° 1.5 mm 1 m/S 616 mmHg 92%
    20:00 +16°C° 1.5 mm 1 m/S 617 mmHg 92%
    21:00 +15°C° 1.5 mm 1 m/S 617 mmHg 93%
    22:00 +15°C° 0.4 mm 1 m/S 617 mmHg 93%
    23:00 +15°C° 0.4 mm 1 m/S 617 mmHg 94%

    21 Oktober, Sonntag

    Zeit Temperatur Niederschläge Wind Luftdruck Luftfeuchtigkeit
    00:00 +15°C° 0.4 mm 1 m/S 616 mmHg 94%
    01:00 +14°C° 0 mm 1 m/S 616 mmHg 95%
    02:00 +14°C° 0 mm 1 m/S 616 mmHg 95%
    03:00 +14°C° 0 mm 1 m/S 616 mmHg 96%
    04:00 +14°C° 0 mm 1 m/S 616 mmHg 95%
    05:00 +14°C° 0 mm 1 m/S 616 mmHg 95%
    06:00 +14°C° 0 mm 1 m/S 616 mmHg 95%
    07:00 +16°C° 0 mm 1 m/S 617 mmHg 88%
    08:00 +19°C° 0 mm 1 m/S 618 mmHg 80%
    09:00 +21°C° 0 mm 1 m/S 620 mmHg 72%
    10:00 +22°C° 0.1 mm 1 m/S 619 mmHg 66%
    11:00 +23°C° 0.1 mm 1 m/S 619 mmHg 61%
    12:00 +24°C° 0.1 mm 2 m/S 619 mmHg 55%
    13:00 +24°C° 0.2 mm 2 m/S 618 mmHg 57%
    14:00 +24°C° 0.2 mm 2 m/S 618 mmHg 59%
    15:00 +23°C° 0.2 mm 2 m/S 617 mmHg 60%
    16:00 +21°C° 0.1 mm 1 m/S 617 mmHg 69%
    17:00 +19°C° 0.1 mm 1 m/S 616 mmHg 78%
    18:00 +16°C° 0.1 mm 1 m/S 616 mmHg 87%
    19:00 +15°C° 0 mm 1 m/S 616 mmHg 89%
    20:00 +15°C° 0 mm 1 m/S 617 mmHg 91%
    21:00 +14°C° 0 mm 1 m/S 617 mmHg 93%
    22:00 +14°C° 0 mm 1 m/S 617 mmHg 93%
    23:00 +14°C° 0 mm 1 m/S 617 mmHg 94%

    22 Oktober, Montag

    Zeit Temperatur Niederschläge Wind Luftdruck Luftfeuchtigkeit
    00:00 +14°C° 0 mm 1 m/S 616 mmHg 94%
    01:00 +14°C° 0 mm 1 m/S 616 mmHg 94%
    02:00 +14°C° 0 mm 1 m/S 616 mmHg 94%
    03:00 +14°C° 0 mm 1 m/S 616 mmHg 94%
    04:00 +14°C° 0 mm 1 m/S 616 mmHg 93%
    05:00 +14°C° 0 mm 1 m/S 616 mmHg 93%
    06:00 +14°C° 0 mm 1 m/S 617 mmHg 93%
    07:00 +16°C° 0 mm 1 m/S 618 mmHg 85%
    08:00 +19°C° 0 mm 1 m/S 619 mmHg 77%
    09:00 +21°C° 0 mm 1 m/S 620 mmHg 69%
    10:00 +22°C° 0 mm 1 m/S 620 mmHg 64%
    11:00 +23°C° 0 mm 1 m/S 620 mmHg 58%
    12:00 +25°C° 0 mm 2 m/S 620 mmHg 52%
    13:00 +24°C° 0.1 mm 2 m/S 619 mmHg 52%
    14:00 +24°C° 0.1 mm 2 m/S 618 mmHg 53%
    15:00 +24°C° 0.1 mm 2 m/S 618 mmHg 54%
    16:00 +22°C° 0 mm 1 m/S 617 mmHg 62%
    17:00 +19°C° 0 mm 1 m/S 617 mmHg 71%
    18:00 +16°C° 0 mm 1 m/S 616 mmHg 80%
    19:00 +15°C° 0 mm 1 m/S 616 mmHg 83%
    20:00 +15°C° 0 mm 1 m/S 617 mmHg 86%
    21:00 +14°C° 0 mm 1 m/S 617 mmHg 89%
    22:00 +13°C° 0 mm 1 m/S 617 mmHg 90%
    23:00 +13°C° 0 mm 1 m/S 616 mmHg 91%
    Mehr zeigen